K1TTT Weather Reports


time (UTC)temp
F
wind
direction
speed
knots
gust
knots
rain 1hr
in
rain 24hr
in
rain mn
in
humidity
%
barometer
mb
20260505212614 74 193 7.8 19.1 0.00 0.00 0.00 38 1004.8
20260505212101 74 242 6.1 21.7 0.00 0.00 0.00 37 1004.7
20260505211610 74 202 8.7 22.6 0.00 0.00 0.00 35 1004.5
20260505211053 74 237 7.8 25.2 0.00 0.00 0.00 34 1004.6
20260505210530 75 137 9.6 18.2 0.00 0.00 0.00 34 1004.5
20260505210056 75 262 5.2 25.2 0.00 0.00 0.00 34 1004.2
20260505205525 75 284 15.6 27.8 0.00 0.00 0.00 33 1004.5
20260505205134 76 208 10.4 24.3 0.00 0.00 0.00 34 1004.6
20260505204600 76 230 9.6 20.9 0.00 0.00 0.00 33 1004.8
20260505204149 76 201 9.6 18.2 0.00 0.00 0.00 35 1004.7
20260505203541 76 160 7.8 18.2 0.00 0.00 0.00 35 1004.7
20260505203107 75 228 8.7 26.1 0.00 0.00 0.00 35 1004.4
20260505202541 75 235 9.6 19.1 0.00 0.00 0.00 35 1004.6
20260505202038 75 219 8.7 22.6 0.00 0.00 0.00 36 1004.5
20260505201606 76 161 9.6 22.6 0.00 0.00 0.00 35 1004.5
20260505201039 75 177 9.6 21.7 0.00 0.00 0.00 34 1004.5
20260505200650 75 192 10.4 21.7 0.00 0.00 0.00 34 1004.6
20260505200546 75 192 10.4 21.7 0.00 0.00 0.00 34 1004.6
20260505200044 75 215 8.7 16.5 0.00 0.00 0.00 35 1004.6
20260505195537 75 158 8.7 22.6 0.00 0.00 0.00 35 1004.6
20260505195032 76 181 9.6 22.6 0.00 0.00 0.00 35 1004.9
20260505194554 76 220 11.3 22.6 0.00 0.00 0.00 35 1004.7
20260505194142 76 195 7.0 15.6 0.00 0.00 0.00 36 1004.7
20260505193608 75 201 7.8 19.1 0.00 0.00 0.00 36 1004.6
20260505193044 75 230 11.3 27.8 0.00 0.00 0.00 36 1004.9
20260505192538 74 189 13.0 27.8 0.00 0.00 0.00 37 1005.2
20260505192034 74 235 13.0 23.5 0.00 0.00 0.00 38 1005.1
20260505191604 74 243 11.3 23.5 0.00 0.00 0.00 38 1005.1
20260505191035 74 146 11.3 21.7 0.00 0.00 0.00 39 1005.0
20260505190606 74 273 10.4 23.5 0.00 0.00 0.00 39 1005.2
20260505190039 74 197 9.6 23.5 0.00 0.00 0.00 39 1005.0
20260505185623 74 195 9.6 21.7 0.00 0.00 0.00 38 1005.1
20260505185036 74 142 10.4 20.9 0.00 0.00 0.00 38 1005.3
20260505184605 74 218 12.2 20.9 0.00 0.00 0.00 38 1005.4
20260505184041 73 163 10.4 26.1 0.00 0.00 0.00 40 1005.5
20260505183610 73 156 7.8 33.9 0.00 0.00 0.00 40 1005.6
20260505183040 74 177 14.8 33.9 0.00 0.00 0.00 37 1005.5
20260505182627 75 211 10.4 24.3 0.00 0.00 0.00 38 1005.5
20260505182545 75 211 10.4 24.3 0.00 0.00 0.00 38 1005.5
20260505182040 74 197 7.8 19.1 0.00 0.00 0.00 39 1005.4
20260505181526 74 166 7.8 27.8 0.00 0.00 0.00 39 1005.5
20260505181051 74 189 12.2 27.8 0.00 0.00 0.00 38 1005.7
20260505180527 74 199 13.9 22.6 0.00 0.00 0.00 37 1005.5
20260505180053 73 235 7.8 23.5 0.00 0.00 0.00 39 1005.6
20260505175549 73 170 10.4 23.5 0.00 0.00 0.00 39 1005.5
20260505175155 73 239 12.2 29.5 0.00 0.00 0.00 41 1005.8
20260505174548 73 222 11.3 29.5 0.00 0.00 0.00 40 1006.6
20260505174045 73 136 11.3 23.5 0.00 0.00 0.00 41 1005.7
20260505173542 73 204 12.2 23.5 0.00 0.00 0.00 43 1005.8
20260505173038 73 229 7.8 28.7 0.00 0.00 0.00 42 1005.8
20260505172645 73 161 9.6 28.7 0.00 0.00 0.00 42 1006.1
20260505172037 73 170 10.4 15.6 0.00 0.00 0.00 41 1006.1
20260505171534 73 174 7.8 17.4 0.00 0.00 0.00 41 1005.9
20260505171059 73 167 6.1 15.6 0.00 0.00 0.00 43 1005.8
20260505170534 73 193 7.0 17.4 0.00 0.00 0.00 42 1006.0
20260505165534 73 195 8.7 24.3 0.00 0.00 0.00 42 1006.1
20260505165103 73 232 9.6 26.1 0.00 0.00 0.00 43 1006.1
20260505164539 73 226 11.3 26.1 0.00 0.00 0.00 42 1006.5
20260505164109 73 217 6.1 19.1 0.00 0.00 0.00 42 1006.3
20260505163552 73 218 8.7 20.0 0.00 0.00 0.00 42 1006.5
20260505163059 73 221 8.7 22.6 0.00 0.00 0.00 43 1006.4
20260505162530 73 236 10.4 22.6 0.00 0.00 0.00 41 1006.6
20260505162101 73 213 7.8 18.2 0.00 0.00 0.00 42 1006.8
20260505161535 73 193 7.8 14.8 0.00 0.00 0.00 43 1006.7
20260505161029 72 217 7.0 23.5 0.00 0.00 0.00 44 1006.6
20260505160553 72 226 10.4 23.5 0.00 0.00 0.00 43 1006.7
20260505153111 71 181 9.6 20.0 0.00 0.00 0.00 47 1007.2
20260505152545 70 156 7.8 20.0 0.00 0.00 0.00 47 1007.3
20260505152133 70 262 8.7 19.1 0.00 0.00 0.00 47 1007.5
20260505151656 70 290 10.4 19.1 0.00 0.00 0.00 48 1007.2
20260505151613 70 290 10.4 19.1 0.00 0.00 0.00 48 1007.2
20260505151048 69 222 8.7 17.4 0.00 0.00 0.00 49 1007.1
20260505150525 69 193 9.6 20.9 0.00 0.00 0.00 48 1007.4
20260505150115 69 229 11.3 20.9 0.00 0.00 0.00 47 1007.5
20260505140553 68 263 10.4 23.5 0.00 0.00 0.00 50 1007.7
20260505130145 64 243 6.1 14.8 0.00 0.00 0.00 55 1007.6
20260505125032 63 185 2.6 13.9 0.00 0.00 0.00 56 1007.4
20260505124557 63 247 7.8 13.9 0.00 0.00 0.00 56 1007.5
20260505124126 63 243 6.1 13.0 0.00 0.00 0.00 56 1007.6
20260505123540 63 218 7.0 13.0 0.00 0.00 0.00 56 1007.5
20260505123036 63 208 5.2 13.0 0.00 0.00 0.00 57 1007.5
20260505122604 63 251 4.3 10.4 0.00 0.00 0.00 57 1007.4
20260505122036 62 238 6.1 10.4 0.00 0.00 0.00 58 1007.5
20260505121604 62 175 3.5 10.4 0.00 0.00 0.00 58 1007.5
20260505121112 61 228 7.0 10.4 0.00 0.00 0.00 58 1007.5
20260505120547 61 239 4.3 13.0 0.00 0.00 0.00 60 1007.3
20260505120138 60 188 7.0 13.9 0.00 0.00 0.00 60 1007.4
20260505115528 60 175 7.0 13.9 0.00 0.00 0.00 60 1007.3
20260505115120 60 160 5.2 9.6 0.00 0.00 0.00 61 1007.3
20260505114529 59 199 6.1 9.6 0.00 0.00 0.00 61 1007.3
20260505114025 59 233 5.2 10.4 0.00 0.00 0.00 61 1007.3
20260505113549 58 198 4.3 8.7 0.00 0.00 0.00 62 1007.1
20260505113059 58 224 4.3 9.6 0.00 0.00 0.00 62 1007.3
20260505112532 57 233 5.2 9.6 0.00 0.00 0.00 63 1007.3
20260505112028 57 206 3.5 8.7 0.00 0.00 0.00 63 1007.2
20260505111616 57 231 4.3 9.6 0.00 0.00 0.00 63 1007.3
20260505111118 57 191 3.5 9.6 0.00 0.00 0.00 63 1007.0
20260505110626 56 208 4.3 11.3 0.00 0.00 0.00 64 1007.1
20260505102107 54 239 2.6 7.8 0.00 0.00 0.00 66 1006.8
20260505101541 54 330 3.5 7.8 0.00 0.00 0.00 66 1006.7
20260505101148 54 253 1.7 7.8 0.00 0.00 0.00 66 1006.7
20260505100540 54 206 4.3 8.7 0.00 0.00 0.00 66 1006.7
20260505100112 53 245 2.6 6.1 0.00 0.00 0.00 66 1006.7
20260505095552 54 243 1.7 7.8 0.00 0.00 0.00 66 1006.6
20260505095047 54 310 3.5 7.8 0.00 0.00 0.00 66 1006.4
20260505094542 54 224 1.7 6.1 0.00 0.00 0.00 65 1006.4
20260505094037 54 239 2.6 6.1 0.00 0.00 0.00 65 1006.5
20260505093606 54 229 2.6 7.0 0.00 0.00 0.00 64 1006.4
20260505093039 54 255 2.6 7.0 0.00 0.00 0.00 64 1006.6
20260505092533 55 213 3.5 8.7 0.00 0.00 0.00 63 1006.5
20260505092029 55 211 2.6 10.4 0.00 0.00 0.00 63 1006.4
20260505091527 55 201 3.5 9.6 0.00 0.00 0.00 62 1006.4
20260505091051 55 217 2.6 12.2 0.00 0.00 0.00 62 1006.6
20260505090556 55 210 2.6 12.2 0.00 0.00 0.00 62 1006.7
20260505090032 55 236 3.5 9.6 0.00 0.00 0.00 62 1006.6
20260505085600 55 220 4.3 10.4 0.00 0.00 0.00 62 1006.7
20260505085108 55 212 5.2 9.6 0.00 0.00 0.00 62 1006.8
20260505084540 55 258 4.3 8.7 0.00 0.00 0.00 62 1006.9
20260505084036 55 208 4.3 8.7 0.00 0.00 0.00 62 1006.9
20260505083625 55 218 3.5 9.6 0.00 0.00 0.00 62 1006.9
20260505083113 55 222 4.3 8.7 0.00 0.00 0.00 61 1006.9
20260505082548 55 235 4.3 10.4 0.00 0.00 0.00 61 1007.0
20260505082044 55 268 5.2 10.4 0.00 0.00 0.00 61 1007.1
20260505081538 55 189 4.3 12.2 0.00 0.00 0.00 61 1007.0
20260505081107 55 212 7.8 12.2 0.00 0.00 0.00 61 1007.0
20260505080611 55 216 5.2 9.6 0.00 0.00 0.00 61 1007.0
20260505080045 55 217 4.3 9.6 0.00 0.00 0.00 61 1006.9
20260505075540 55 231 4.3 8.7 0.00 0.00 0.00 61 1006.9
20260505075036 55 192 3.5 7.8 0.00 0.00 0.00 60 1007.0
20260505074532 55 229 3.5 9.6 0.00 0.00 0.00 60 1007.0
20260505074027 55 235 3.5 13.0 0.00 0.00 0.00 60 1007.1
20260505073552 55 186 6.1 13.0 0.00 0.00 0.00 60 1007.0
20260505073047 55 242 5.2 10.4 0.00 0.00 0.00 60 1007.0
20260505072542 55 237 2.6 6.1 0.00 0.00 0.00 60 1007.0
20260505072037 55 214 3.5 8.7 0.00 0.00 0.00 60 1007.1
20260505071533 55 264 3.5 9.6 0.00 0.00 0.00 59 1007.0
20260505071120 55 238 6.1 9.6 0.00 0.00 0.00 59 1007.0
20260505070609 55 190 3.5 7.8 0.00 0.00 0.00 59 1007.1
20260505070045 55 224 3.5 10.4 0.00 0.00 0.00 59 1007.1
20260505065613 56 258 3.5 10.4 0.00 0.00 0.00 59 1007.1
20260505065055 56 211 3.5 7.8 0.00 0.00 0.00 58 1007.2
20260505064531 56 195 3.5 7.8 0.00 0.00 0.00 58 1007.1
20260505064027 56 234 2.6 8.7 0.00 0.00 0.00 58 1007.2
20260505063548 56 214 3.5 8.7 0.00 0.00 0.00 58 1007.1
20260505063044 56 225 4.3 10.4 0.00 0.00 0.00 58 1007.1
20260505062539 56 206 6.1 10.4 0.00 0.00 0.00 57 1007.3
20260505062034 56 208 6.1 13.9 0.00 0.00 0.00 57 1007.3
20260505061531 56 231 5.2 13.9 0.00 0.00 0.00 58 1007.3
20260505061101 56 243 5.2 12.2 0.00 0.00 0.00 58 1007.4
20260505060608 56 216 7.0 13.0 0.00 0.00 0.00 58 1007.4
20260505060053 56 221 4.3 12.2 0.00 0.00 0.00 58 1007.5
20260505055548 55 204 5.2 8.7 0.00 0.00 0.00 58 1007.4
20260505055049 55 256 3.5 8.7 0.00 0.00 0.00 58 1007.6
20260505054618 55 178 3.5 10.4 0.00 0.00 0.00 58 1007.6
20260505054032 55 172 5.2 11.3 0.00 0.00 0.00 58 1007.6
20260505053557 55 191 3.5 12.2 0.00 0.00 0.00 58 1007.6
20260505053033 55 145 5.2 10.4 0.00 0.00 0.00 58 1007.8
20260505052527 55 172 3.5 9.6 0.00 0.00 0.00 58 1007.7
20260505052052 55 170 5.2 10.4 0.00 0.00 0.00 58 1007.7
20260505051555 55 160 6.1 10.4 0.00 0.00 0.00 59 1007.7
20260505051120 55 222 3.5 9.6 0.00 0.00 0.00 59 1007.7
20260505050533 55 173 5.2 9.6 0.00 0.00 0.00 60 1007.7
20260505041536 54 220 4.3 11.3 0.00 0.00 0.00 61 1007.9
20260505041128 54 184 6.1 10.4 0.00 0.00 0.00 62 1007.9
20260505040541 54 220 2.6 10.4 0.00 0.00 0.00 61 1007.9
20260505040106 54 202 5.2 10.4 0.00 0.00 0.00 61 1007.9
20260505035540 54 201 5.2 11.3 0.00 0.00 0.00 61 1007.8
20260505035036 54 197 6.1 14.8 0.00 0.00 0.00 62 1007.7
20260505034655 54 201 6.1 14.8 0.00 0.00 0.00 62 1007.7
20260505034049 54 236 4.3 10.4 0.00 0.00 0.00 62 1007.6
20260505033547 54 215 5.2 10.4 0.00 0.00 0.00 62 1007.7
20260505033055 54 158 6.1 10.4 0.00 0.00 0.00 62 1007.6
20260505032528 54 225 4.3 10.4 0.00 0.00 0.00 62 1007.6
20260505032048 54 202 4.3 9.6 0.00 0.00 0.00 63 1007.6
20260505031553 54 162 4.3 8.7 0.00 0.00 0.00 63 1007.5
20260505031056 54 189 4.3 9.6 0.00 0.00 0.00 63 1007.6
20260505030605 54 221 4.3 13.0 0.00 0.00 0.00 62 1007.6
20260505030050 54 159 4.3 11.3 0.00 0.00 0.00 62 1007.5
20260505025558 54 210 6.1 12.2 0.00 0.00 0.00 62 1007.5
20260505025143 54 213 6.1 12.2 0.00 0.00 0.00 62 1007.5
20260505024535 54 159 4.3 10.4 0.00 0.00 0.00 62 1007.5
20260505024031 54 191 6.1 11.3 0.00 0.00 0.00 62 1007.5
20260505023555 54 198 3.5 14.8 0.00 0.00 0.00 61 1007.5
20260505023030 55 189 4.3 13.0 0.00 0.00 0.00 61 1007.5
20260505022619 55 187 5.2 13.0 0.00 0.00 0.00 61 1007.5
20260505022034 55 148 7.0 13.0 0.00 0.00 0.00 61 1007.5
20260505021529 55 178 2.6 10.4 0.00 0.00 0.00 60 1007.5
20260505021058 55 230 3.5 8.7 0.00 0.00 0.00 60 1007.5
20260505020528 55 183 4.3 12.2 0.00 0.00 0.00 59 1007.6
20260505020059 55 172 5.2 13.0 0.00 0.00 0.00 59 1007.4
20260505015625 55 179 5.2 8.7 0.00 0.00 0.00 58 1007.4
20260505015113 56 178 5.2 9.6 0.00 0.00 0.00 57 1007.4
20260505014545 56 141 4.3 10.4 0.00 0.00 0.00 56 1007.4
20260505014041 56 167 5.2 10.4 0.00 0.00 0.00 54 1007.2
20260505013534 57 162 4.3 8.7 0.00 0.00 0.00 52 1007.2
20260505013122 57 146 4.3 8.7 0.00 0.00 0.00 50 1007.1
20260505012532 57 135 3.5 7.0 0.00 0.00 0.00 49 1007.0
20260505012141 58 144 3.5 7.0 0.00 0.00 0.00 48 1007.0
20260505011533 58 145 3.5 7.0 0.00 0.00 0.00 48 1007.0
20260505011029 58 179 2.6 5.2 0.00 0.00 0.00 48 1006.9
20260505010525 58 174 2.6 5.2 0.00 0.00 0.00 47 1006.9
20260505010050 58 163 2.6 5.2 0.00 0.00 0.00 47 1006.9
20260505005546 58 178 2.6 6.1 0.00 0.00 0.00 47 1006.8
20260505005043 58 162 2.6 6.1 0.00 0.00 0.00 47 1006.7
20260505004607 58 173 2.6 5.2 0.00 0.00 0.00 47 1006.6
20260505004050 58 179 2.6 5.2 0.00 0.00 0.00 46 1006.4
20260505003545 59 170 1.7 4.3 0.00 0.00 0.00 46 1006.5
20260505003042 59 170 1.7 5.2 0.00 0.00 0.00 46 1006.4
20260505002610 59 156 2.6 7.0 0.00 0.00 0.00 45 1006.4
20260505002045 59 179 2.6 4.3 0.00 0.00 0.00 45 1006.4
20260505001550 59 172 1.7 3.5 0.00 0.00 0.00 45 1006.4
20260505001045 59 158 2.6 7.0 0.00 0.00 0.00 44 1006.4
20260505000544 60 189 1.7 7.0 0.00 0.00 0.00 44 1006.4
20260505000040 60 176 4.3 6.1 0.00 0.00 0.00 44 1006.2
20260504235551 60 205 2.6 10.4 0.00 0.00 0.00 44 1006.3
20260504235142 60 174 6.1 10.4 0.00 0.00 0.00 43 1006.2
20260504234629 60 178 4.3 7.8 0.00 0.00 0.00 43 1006.1
20260504231538 62 221 4.3 11.3 0.00 0.00 0.00 40 1005.9
20260504231035 62 268 6.1 13.9 0.00 0.00 0.00 40 1005.8
20260504230602 62 216 4.3 9.6 0.00 0.00 0.00 40 1005.8
20260504230110 63 218 7.0 10.4 0.00 0.00 0.00 40 1005.5
20260504225552 63 192 4.3 9.6 0.00 0.00 0.00 39 1005.4
20260504225137 63 229 6.1 9.6 0.00 0.00 0.00 39 1005.4
20260504224604 63 228 4.3 11.3 0.00 0.00 0.00 39 1005.4
20260504224133 63 202 3.5 13.0 0.00 0.00 0.00 39 1005.5
20260504223546 63 204 6.1 13.9 0.00 0.00 0.00 39 1005.5
20260504223043 63 194 3.5 13.0 0.00 0.00 0.00 39 1005.4
20260504222612 63 216 9.6 13.0 0.00 0.00 0.00 39 1005.5
20260504222046 63 139 5.2 16.5 0.00 0.00 0.00 40 1005.5
20260504221545 63 206 7.8 16.5 0.00 0.00 0.00 39 1005.7
20260504221043 63 194 7.8 13.9 0.00 0.00 0.00 39 1005.5
20260504220611 63 188 6.1 12.2 0.00 0.00 0.00 39 1005.6
20260504220026 63 139 6.1 11.3 0.00 0.00 0.00 39 1005.5
20260504215615 63 196 7.8 15.6 0.00 0.00 0.00 39 1005.5
20260504215058 63 210 6.1 15.6 0.00 0.00 0.00 39 1005.5
20260504214533 63 250 6.1 14.8 0.00 0.00 0.00 39 1005.5
20260504214057 63 206 8.7 14.8 0.00 0.00 0.00 39 1005.6
20260504213527 63 199 6.1 15.6 0.00 0.00 0.00 39 1005.8
20260504213148 64 176 7.0 15.6 0.00 0.00 0.00 39 1005.7